Location: Bernadets
(43.3537°N, 0.3167°E)
Time: 23:13:50
(UTC+00:00)

Cosmos 2278 - Pass Details

Date: 24 October 2021
Orbit: 838 x 854 km, 71.1° (Epoch: 27 November)

Event Time Altitude Azimuth Distance (km) Brightness Sun altitude
Rises 17:37:17 0° 215° (SW) 3,388 7.6 -7.2°
Reaches altitude 10° 17:39:46 10° 220° (SW) 2,460 6.9 -7.7°
Maximum altitude 17:45:19 57° 298° (WNW) 994 4.4 -8.7°
Drops below altitude 10° 17:50:56 10° 18° (NNE) 2,485 5.9 -9.7°
Sets 17:53:28 0° 22° (NNE) 3,427 6.6 -10.1°
